星链-11363 (STARLINK-11363)

导读

STARLINK-11363是美国(US)SpaceX星链(Starlink)项目的低轨互联网通信卫星,于2024年11月18日发射升空,属于星链星座扩容卫星。星链项目旨在通过全球低轨卫星星座提供高速互联网覆盖,该卫星入轨后将进一步完善星链网络,提升全球特别是偏远区域的互联网服务能力,推进SpaceX卫星互联网组网进程。

基本信息
目录编号:
62012
目录名称:
STARLINK-11363
国际标识:
2024-213E
轨道中心:
EARTH
卫星名称:
星链-11363
卫星全名:
星链-11363 (STARLINK-11363)
卫星状态:
在轨 (已飞行569 天)
发射日期:
2024-11-18 UTC
国别 :
美国 (US)
星等 :
--
轨道信息
数据来源 国际轨道数据
星历时间: 2026-06-10T10:56:50+0800
9小时前
查看轨道信息
半长轴: 6737.758km
偏心率: 0.0000996
轨道倾角: 53.156°
近地点辐角 54.691°
升交点赤经 305.543°
平近点角 305.421°
近地点: 358.949km
远地点: 360.293km
周期: 91.735分钟
每日圈数: 15.69747
详细信息
固有亮度:
5
最大亮度:
2.5
卫星平台:
Starlink V1.0
覆盖范围:
全球
运营商:
太空探索技术公司
运营商所在国:
美国
制造商(研发单位):
太空探索技术公司
制造商所在国:
美国
使用方式:
暂无
卫星简介
Starlink 计划是 SpaceX 推出的全球卫星互联网项目,通过发射低轨道卫星,为全球尤其是偏远地区提供高速、低延迟的互联网服务。自 2019 年起,Starlink 已部署数千颗卫星,旨在缩小全球数字鸿沟,推动互联网普及。该项目还为军事、航空等行业提供通信支持,带来广泛经济效益。
2D轨道图
3D轨道图
轨道高度分析图
轨道倾角分析图
轨道综合分析图
查看轨道综合分析图